Content
SEND FEEDBACK

Daily
Averages
Monthly
Summary
United States of America

MORRISVILLE, NEW YORK


Home > North America > United States > New York
Elevation: 1339 feet     Latitude: 42 51N     Longitude: 075 39W

WEATHER
 
SELECT A DAY
Number of Records: 223,832;   Date Range: 1/1/95 - 7/26/14
 
SHARE

PRINT THIS DATA

[ ← Previous Day ]
WEATHER ALMANAC - JANUARY 31, 2013
[ Next Day → ]
[ °C ]   °F
Weather ElementAverageHighLow
Temperature35.3 °F55.9 °F (1:54 am)24.1 °F (9:54 pm)
Dewpoint23.6 °F51.1 °F (1:54 am)10 °F (6:54 pm)
Humidity63.3 %84 % (1:54 am)45 % (3:54 pm)
Barometer29.33 in29.66 in (11:54 pm)28.96 in (2:54 am)
Wind Speed26.3 mph38 mph (7:54 am)
Wind Gust50.6 mph (3:35 am)
Weather ElementAverage
Visibility9 mi
Wind DirectionWSW (250.4 °)

Weather ElementTotal
Precipitation0.32 in
Heating Degree Days25 (Base 65)
Averaged from 27 records on January 31, 2013
WEATHER CONDITIONS BREAKOUT
WIND DIRECTION BREAKOUT
WEATHER BY HOUR - JANUARY 31, 2013
[ °C ]   °F
Local TimeTemperatureDewpointHumidityBarometerVisibilityWind DirectionWind SpeedGust SpeedPrecipitationEventsConditions
1:54 AM55.9 °F51.1 °F84 %28.99 in8.0 miSSE (160°)9.2 mph0.07 inRainLight Rain
2:54 AM55.9 °F50.0 °F80 %28.96 in10.0 miSouth (190°)15.0 mph21.9 mph0.03 inRainLight Rain
3:25 AM48.2 °F42.8 °F82 %29.05 in4.0 miWSW (250°)35.7 mph46.0 mph0.02 inRainRain
3:35 AM44.6 °F39.2 °F81 %29.04 in7.0 miWest (260°)34.5 mph50.6 mph0.03 inRainLight Rain
3:54 AM44.1 °F39.0 °F82 %29.05 in10.0 miWest (260°)27.6 mph34.5 mph0.04 inRainLight Rain
4:22 AM42.8 °F35.6 °F76 %29.09 in9.0 miWSW (250°)32.2 mph40.3 mph0.03 inRainLight Rain
4:36 AM41.0 °F35.6 °F81 %29.07 in10.0 miWSW (250°)19.6 mph28.8 mph0.05 inRainLight Rain
4:54 AM41.0 °F35.1 °F79 %29.09 in10.0 miWSW (250°)21.9 mph26.5 mph0.05 inRainLight Rain
5:54 AM39.9 °F30.0 °F68 %29.11 in10.0 miWest (260°)28.8 mph36.8 mph0.00 inRainLight Rain
6:54 AM37.9 °F27.0 °F65 %29.17 in10.0 miWSW (250°)32.2 mph47.2 mph0.00 inOvercast
7:54 AM36.0 °F23.0 °F59 %29.23 in10.0 miWSW (250°)38.0 mph47.2 mphOvercast
8:54 AM33.1 °F21.9 °F64 %29.29 in9.0 miWest (260°)28.8 mph41.4 mph0.00 inSnowLight Snow
9:54 AM33.1 °F17.1 °F52 %29.33 in9.0 miWSW (250°)32.2 mph43.7 mph0.00 inOvercast
10:54 AM33.1 °F18.0 °F54 %29.37 in9.0 miWSW (250°)31.1 mph40.3 mph0.00 inSnowLight Snow
11:54 AM32.0 °F16.0 °F52 %29.37 in9.0 miWest (270°)20.7 mph35.7 mph0.00 inSnowLight Snow
12:54 PM30.9 °F18.0 °F59 %29.41 in4.0 miWest (280°)21.9 mph33.4 mph0.00 inSnowLight Snow
1:54 PM30.9 °F15.1 °F52 %29.43 in9.0 miWest (260°)33.4 mph42.6 mph0.00 inSnowLight Snow
2:54 PM30.9 °F12.9 °F47 %29.46 in9.0 miWest (280°)29.9 mph40.3 mph0.00 inSnowLight Snow
3:54 PM30.0 °F10.9 °F45 %29.50 in10.0 miWest (260°)29.9 mph47.2 mph0.00 inMostly Cloudy
4:54 PM28.9 °F10.9 °F47 %29.53 in10.0 miWSW (250°)26.5 mph36.8 mph0.00 inMostly Cloudy
5:54 PM28.0 °F12.0 °F51 %29.57 in9.0 miWest (260°)20.7 mph29.9 mph0.00 inSnowLight Snow
6:54 PM28.0 °F10.0 °F47 %29.59 in10.0 miWSW (250°)23.0 mph33.4 mph0.00 inOvercast
7:54 PM28.0 °F10.9 °F49 %29.61 in9.0 miWSW (250°)23.0 mph34.5 mph0.00 inOvercast
8:54 PM26.1 °F16.0 °F66 %29.62 in9.0 miWSW (250°)19.6 mph0.00 inSnowLight Snow
9:54 PM24.1 °F17.1 °F75 %29.65 in9.0 miWest (260°)25.3 mph31.1 mph0.00 inSnowLight Snow
10:54 PM25.0 °F12.0 °F58 %29.65 in10.0 miWSW (250°)21.9 mph31.1 mph0.00 inMostly Cloudy
11:54 PM25.0 °F10.0 °F53 %29.66 in10.0 miWSW (250°)27.6 mph34.5 mphOvercast
Hourly data recorded from KSYR, located miles away from Morrisville, New York







STORIES FROM OUR PARTNERS